Location: Fontevrault
(47.1823°N, 0.0493°E)
Time: 12:44:57
(UTC+00:00)

Spot 4 - Pass Details

Date: 16 June 2021
Orbit: 705 x 722 km, 98.3° (Epoch: 30 July)

Event Time Altitude Azimuth Distance (km) Brightness Sun altitude
Exits shadow 23:31:28 32° 211° (SSW) 1,212 4.6 -19.1°
Maximum altitude 23:33:13 46° 261° (W) 955 4.4 -19.2°
Drops below altitude 10° 23:37:50 10° 335° (NNW) 2,190 7.4 -19.2°
Sets 23:40:11 0° 341° (NNW) 3,112 8.6 -19.3°
